Location: Piotrkow Trybunalski
(51.4000°N, 19.6830°E)
Time: 00:38:59
(UTC+01:00)

A-11 Canister half - Pass Details

Date: 11 December 2023
Orbit: 1512 x 1687 km, 47.2° (Epoch: 23 February)

Event Time Altitude Azimuth Distance (km) Brightness Sun altitude
Exits shadow 01:01:40 12° 95° (E) 3,750 11.2 -56.9°
Drops below altitude 10° 01:02:11 10° 95° (E) 3,909 11.3 -56.9°
Sets 01:05:23 0° 93° (E) 4,913 11.9 -56.6°
